sat.trackr.live / text

‹ back to catalog

STARLINK-4648

NORAD 53602 · 2022-104Q

PAYLOAD ACTIVE UNKNOWN

§ Identity

Operator
Country
US
Launch date
2022-08-28
Launch site
AFETR
Launch vehicle
Mass (kg)
RCS (m²)

Purposes: comms

External: N2YO · Heavens-Above · Gunter

§ Orbital elements

Epoch: 2026-05-24T17:13:37.685856Z

Period
95.44 min
Inclination
53.2157°
Eccentricity
0.0001329
Mean motion
15.08840382 rev/d
Perigee alt
538.8 km
Apogee alt
540.7 km
Semi-major
6,917.9 km
B*
5.2505e-5
RAAN
257.7563°
Arg perigee
88.3903°
Mean anomaly
271.7241°
Rev number
20,716

§ Raw data

STARLINK-46481 53602U 22104Q   26144.71779729  .00000548  00000+0  52505-4 0  99982 53602  53.2157 257.7563 0001329  88.3903 271.7241 15.08840382207161

JSON: /api/v1/satellites/53602 · /tle

For live sub-satellite position, see the globe view (requires WebGL).

§ Visibility from observer

Set your observer location to see the next 7 days of passes ≥ 10°. The values pass through the URL so the page stays shareable.

No JS? Fill the form by hand. The geolocation button needs JavaScript.